Content
SEND FEEDBACK

Daily
Averages
Monthly
Summary
United States of America

FORT MORGAN, ALABAMA


Home > North America > United States > Alabama
Elevation: 1 foot     Latitude: 30 14N     Longitude: 088 01W

WEATHER
 
SELECT A DAY
Number of Records: 43,560;   Date Range: 6/6/11 - 7/21/14
 
SHARE

PRINT THIS DATA

[ ← Previous Day ]
WEATHER ALMANAC - FEBRUARY 5, 2013
[ Next Day → ]
[ °C ]   °F
Weather ElementAverageHighLow
Temperature60.7 °F68 °F (11:15 am)51.8 °F (8:55 pm)
Dewpoint57.7 °F62.6 °F (10:55 am)51.8 °F (8:35 pm)
Humidity90.4 %100 % (12:35 am)78 % (11:35 am)
Barometer30.00 in30.04 in (11:15 pm)29.96 in (3:35 pm)
Wind Speed4.5 mph10.4 mph (11:35 am)
Weather ElementAverage
Visibility6.1 mi
Wind DirectionENE (64.7 °)

Weather ElementTotal
Precipitation0.42 in
Heating Degree Days5.1 (Base 65)
Growing Degree Days9.9 (Base 50)
Averaged from 60 records on February 5, 2013
WEATHER CONDITIONS BREAKOUT
WIND DIRECTION BREAKOUT
WEATHER BY HOUR - FEBRUARY 5, 2013
[ °C ]   °F
Local TimeTemperatureDewpointHumidityBarometerVisibilityWind DirectionWind SpeedGust SpeedPrecipitationEventsConditions
12:35 AM55.4 °F55.4 °F100 %30.00 in10.0 miCalm0.01 inRainLight Rain
1:15 AM55.4 °F55.4 °F100 %30.00 in5.0 miCalm0.02 inRainLight Rain
1:35 AM55.4 °F55.4 °F100 %29.99 in7.0 miCalm0.02 inRainRain
1:55 AM55.4 °F55.4 °F100 %29.99 in7.0 miCalm0.03 inRainLight Rain
2:15 AM55.4 °F55.4 °F100 %29.98 in7.0 miEast (90°)3.5 mph0.01 inRainRain
2:35 AM57.2 °F55.4 °F94 %29.98 in10.0 miCalm0.01 inRainLight Rain
3:15 AM57.2 °F55.4 °F94 %29.99 in7.0 miNorth (10°)5.8 mph0.01 inRainLight Rain
3:35 AM57.2 °F55.4 °F94 %29.98 in7.0 miNE (50°)6.9 mph0.03 inRainLight Rain
3:55 AM57.2 °F55.4 °F94 %29.99 in7.0 miNorth (350°)3.5 mph0.05 inRainLight Rain
4:15 AM57.2 °F55.4 °F94 %29.98 in7.0 miNNE (30°)4.6 mph0.01 inRainRain
4:35 AM57.2 °F55.4 °F94 %29.98 in4.0 miENE (60°)5.8 mph0.06 inRainRain
4:55 AM57.2 °F55.4 °F94 %29.98 in5.0 miEast (80°)8.1 mph0.14 inRainRain
5:15 AM57.2 °F55.4 °F94 %29.98 in7.0 miENE (70°)8.1 mph0.01 inRainRain
5:35 AM57.2 °F55.4 °F94 %29.98 in10.0 miENE (70°)9.2 mph0.01 inRainRain
6:15 AM59.0 °F57.2 °F94 %29.98 in10.0 miEast (80°)4.6 mphOvercast
6:35 AM59.0 °F57.2 °F94 %29.99 in7.0 miEast (90°)8.1 mphOvercast
6:55 AM57.2 °F55.4 °F94 %29.98 in10.0 miEast (80°)6.9 mphOvercast
7:15 AM57.2 °F55.4 °F94 %29.99 in7.0 miENE (70°)8.1 mphOvercast
7:35 AM59.0 °F57.2 °F94 %30.00 in5.0 miEast (80°)5.8 mphOvercast
7:55 AM59.0 °F57.2 °F94 %30.00 in7.0 miEast (90°)6.9 mphOvercast
8:15 AM59.0 °F57.2 °F94 %30.00 in10.0 miEast (80°)5.8 mphOvercast
8:35 AM59.0 °F59.0 °F100 %30.01 in7.0 miENE (60°)3.5 mphOvercast
9:15 AM60.8 °F59.0 °F94 %30.02 in7.0 miENE (70°)4.6 mphOvercast
9:35 AM60.8 °F59.0 °F94 %30.03 in7.0 miENE (70°)4.6 mphOvercast
9:55 AM60.8 °F59.0 °F94 %30.02 in7.0 miEast (80°)6.9 mphOvercast
10:15 AM62.6 °F60.8 °F94 %30.03 in7.0 miEast (100°)5.8 mphOvercast
10:35 AM62.6 °F60.8 °F94 %30.02 in7.0 miEast (100°)8.1 mphOvercast
10:55 AM66.2 °F62.6 °F88 %30.02 in7.0 miESE (110°)9.2 mphOvercast
11:15 AM68.0 °F62.6 °F83 %30.01 in7.0 miESE (110°)9.2 mphOvercast
11:35 AM68.0 °F60.8 °F78 %30.01 in7.0 miEast (100°)10.4 mphOvercast
11:55 AM68.0 °F60.8 °F78 %30.01 in7.0 miSE (130°)8.1 mphOvercast
12:15 PM68.0 °F60.8 °F78 %30.00 in10.0 miESE (110°)6.9 mphOvercast
12:35 PM68.0 °F60.8 °F78 %30.00 in7.0 miEast (100°)8.1 mphOvercast
12:55 PM68.0 °F62.6 °F83 %29.99 in7.0 miSE (130°)6.9 mphOvercast
1:15 PM68.0 °F60.8 °F78 %29.98 in7.0 miEast (90°)8.1 mphOvercast
1:35 PM68.0 °F60.8 °F78 %29.98 in5.0 miESE (120°)8.1 mphHaze
1:55 PM68.0 °F60.8 °F78 %29.98 in7.0 miESE (120°)6.9 mphOvercast
2:15 PM68.0 °F60.8 °F78 %29.98 in7.0 miEast (100°)6.9 mphOvercast
2:35 PM68.0 °F60.8 °F78 %29.97 in10.0 miENE (70°)5.8 mphOvercast
2:55 PM68.0 °F60.8 °F78 %29.97 in7.0 miEast (90°)4.6 mphOvercast
3:15 PM68.0 °F60.8 °F78 %29.97 in7.0 miEast (90°)4.6 mphOvercast
3:35 PM68.0 °F60.8 °F78 %29.96 in7.0 miEast (80°)5.8 mphOvercast
3:55 PM68.0 °F60.8 °F78 %29.96 in10.0 miESE (110°)4.6 mphOvercast
4:15 PM68.0 °F60.8 °F78 %29.97 in7.0 miEast (80°)4.6 mphOvercast
4:35 PM68.0 °F60.8 °F78 %29.97 in7.0 miEast (90°)5.8 mphOvercast
4:55 PM68.0 °F60.8 °F78 %29.98 in7.0 miEast (80°)3.5 mphOvercast
5:15 PM68.0 °F60.8 °F78 %29.97 in10.0 miENE (60°)3.5 mphOvercast
5:35 PM64.4 °F60.8 °F88 %29.97 in7.0 miNE (50°)3.5 mphScattered Clouds
6:15 PM60.8 °F59.0 °F94 %29.98 in7.0 miCalmClear
6:35 PM59.0 °F59.0 °F100 %29.99 in1.0 miCalmMist
6:55 PM55.4 °F55.4 °F100 %30.00 in0.2 miCalmFogFog
7:15 PM55.4 °F55.4 °F100 %30.00 in1.8 miCalmMostly Cloudy
8:35 PM53.6 °F51.8 °F94 %30.02 in0.2 miCalmFogFog
8:55 PM51.8 °F51.8 °F100 %30.02 in0.5 miCalmFogFog
9:15 PM51.8 °F51.8 °F100 %30.03 in0.5 miCalmFogFog
9:55 PM53.6 °F53.6 °F100 %30.03 in0.5 miCalmFogFog
10:15 PM53.6 °F53.6 °F100 %30.03 in0.5 miCalmFogFog
10:35 PM53.6 °F51.8 °F94 %30.03 in0.5 miCalmFogFog
11:15 PM53.6 °F53.6 °F100 %30.04 in0.5 miCalmFogFog
11:35 PM51.8 °F51.8 °F100 %30.04 in0.2 miCalmFogFog
Hourly data recorded from KCQF, located miles away from Fort Morgan, Alabama







STORIES FROM OUR PARTNERS